User: anonymous   Login
Location: Unspecified
(0.0000°N, 0.0000°E)
Time: 06:09:59
(UTC+00:00)
Language:

USA 247 - Orbit

View from above orbital plane
View from above orbital plane
View from above satellite
View from above satellite

Ground track
Ground track

The orbit data is extracted from the following two-line orbital elements,

1 39462U 13072A   14330.23580420 0.00000000  00000-0  00000-0 0    05
2 39462 123.0062 246.9942 0006999  78.9197 281.0802 13.41440291    00
Epoch (UTC): 26 November 2014 05:39:33
Eccentricity: 0.0006999
inclination: 123.0062°
perigee height: 1098 km
apogee height: 1109 km
right ascension of ascending node: 246.9942°
argument of perigee: 78.9197°
revolutions per day: 13.41440291
mean anomaly at epoch: 281.0802°
orbit number at epoch: 0

The dashed part of the orbit path shows where the satellite is in the earth's shadow,  

DLR